Weather History for Big Bear City, CA

Change the Weather History Date:

Wednesday, February 20, 2013

  Actual Average (KBUO) Record (KBUO)
Temperature  
Mean Temperature 23 °F -  
Max Temperature 32 °F 57 °F 73 °F (1999)
Min Temperature 12 °F 40 °F 37 °F (1998)
Degree Days  
Heating Degree Days 42    
Moisture  
Dew Point 16 °F    
Average Humidity 76    
Maximum Humidity 86    
Minimum Humidity 55    
Precipitation  
Precipitation 0.06 in - - ()
Sea Level Pressure  
Sea Level Pressure 29.68 in    
Wind  
Wind Speed 8 mph (WSW)    
Max Wind Speed 20 mph    
Max Gust Speed 30 mph    
Visibility 5 miles    
Events Snow    
Averages and records for this station are not official NWS values.
T = Trace of Precipitation, MM = Missing Value Source: NWS Daily Summary

Daily Weather History Graph

Daily Weather History Graph

Search for Another Location

Airport:

Trip Planner

Search our weather history database for the weather conditions in past years. The results will help you decide how hot, cold, wet, or windy it might be!

Date:

Astronomy

Feb. 20, 2013 Rise Set
Actual Time 6:26 AM PST 5:36 PM PST
Civil Twilight 6:01 AM PST 6:01 PM PST
Nautical Twilight 5:31 AM PST 6:30 PM PST
Astronomical Twilight 5:02 AM PST 6:59 PM PST
Moon 1:08 PM PST (2/20) 2:42 AM PST (2/20)
Length of Visible Light 12h 00m
Length of Day
11h 09m
Waxing Gibbous, 77% of the Moon is Illuminated
Feb 20
Waxing Gibbous
Feb 25
Full
Mar 4
Last Quarter
Mar 11
New
Mar 19
First Quarter

Hourly Weather History & Observations

Time (PST) Temp. Windchill Dew Point Humidity Pressure Visibility Wind Dir Wind Speed Gust Speed Precip Events Conditions
12:15 AM 23.0 °F 15.8 °F 19.4 °F 86% 29.52 in 0.2 mi WSW 5.8 mph - 0.02 in Snow Heavy Snow
12:35 AM 23.0 °F - 19.4 °F 86% 29.50 in 1.0 mi Calm Calm - 0.03 in Snow Snow
12:55 AM 23.0 °F 14.7 °F 19.4 °F 86% 29.49 in 1.2 mi WSW 6.9 mph - 0.03 in Snow Snow
1:15 AM 23.0 °F 13.1 °F 19.4 °F 86% 29.49 in 1.2 mi WSW 9.2 mph - 0.01 in Snow Light Snow
1:35 AM 23.0 °F 12.4 °F 19.4 °F 86% 29.48 in 0.8 mi West 10.4 mph - 0.02 in Snow Snow
1:55 AM 21.2 °F 6.8 °F 17.6 °F 86% 29.50 in 0.5 mi WSW 17.3 mph 26.5 mph 0.02 in Snow Snow
2:15 AM 21.2 °F 12.6 °F 15.8 °F 80% 29.48 in 2.0 mi WSW 6.9 mph 19.6 mph N/A Snow Light Snow
2:35 AM 21.2 °F 13.6 °F 15.8 °F 80% 29.48 in 2.0 mi WSW 5.8 mph - N/A Snow Light Snow
2:55 AM 19.4 °F 6.6 °F 14.0 °F 80% 29.48 in 2.0 mi WSW 12.7 mph 17.3 mph N/A Snow Light Snow
3:15 AM 19.4 °F 10.4 °F 12.2 °F 74% 29.46 in 5.0 mi SW 6.9 mph - N/A   Haze
3:35 AM 19.4 °F 7.9 °F 12.2 °F 74% 29.46 in 1.5 mi WSW 10.4 mph 20.7 mph N/A Snow Light Snow
3:55 AM 17.6 °F 7.3 °F 14.0 °F 86% 29.46 in 1.0 mi WSW 8.1 mph - 0.01 in Snow Snow
4:15 AM 17.6 °F 3.2 °F 12.2 °F 79% 29.46 in 1.2 mi West 15.0 mph 19.6 mph N/A Snow Light Snow
4:55 AM 17.6 °F 4.3 °F 12.2 °F 79% 29.47 in 1.5 mi WSW 12.7 mph 19.6 mph N/A Snow Light Snow
5:15 AM 17.6 °F 2.7 °F 12.2 °F 79% 29.48 in 5.0 mi West 16.1 mph 25.3 mph N/A   Overcast
5:35 AM 17.6 °F 3.2 °F 12.2 °F 79% 29.49 in 5.0 mi WSW 15.0 mph 23.0 mph N/A Snow Light Snow
6:15 AM 17.6 °F 5.7 °F 12.2 °F 79% 29.51 in 4.0 mi WSW 10.4 mph 18.4 mph N/A Snow Light Snow
6:35 AM 17.6 °F 6.4 °F 12.2 °F 79% 29.52 in 2.0 mi West 9.2 mph - N/A Snow Light Snow
7:15 AM 17.6 °F 3.7 °F 12.2 °F 79% 29.54 in 2.0 mi West 13.8 mph 19.6 mph N/A Snow Light Snow
7:35 AM 17.6 °F 7.3 °F 12.2 °F 79% 29.55 in 4.0 mi WSW 8.1 mph - N/A Snow Light Snow
7:55 AM 17.6 °F 9.3 °F 14.0 °F 86% 29.56 in 1.2 mi WSW 5.8 mph - N/A Snow Light Snow
8:15 AM 19.4 °F 7.9 °F 14.0 °F 80% 29.57 in 0.5 mi West 10.4 mph 16.1 mph N/A Snow Snow
8:35 AM 19.4 °F 7.9 °F 12.2 °F 74% 29.59 in 0.5 mi West 10.4 mph 17.3 mph N/A Snow Snow
8:55 AM 19.4 °F 8.6 °F 12.2 °F 74% 29.60 in 0.8 mi West 9.2 mph - N/A Snow Light Snow
9:15 AM 19.4 °F 8.6 °F 14.0 °F 80% 29.62 in 0.8 mi WSW 9.2 mph - N/A Snow Light Snow
9:35 AM 19.4 °F 8.6 °F 14.0 °F 80% 29.64 in 1.0 mi WSW 9.2 mph - N/A Snow Light Snow
9:55 AM 19.4 °F 7.2 °F 14.0 °F 80% 29.65 in 2.0 mi WSW 11.5 mph 16.1 mph N/A Snow Light Snow
10:15 AM 21.2 °F 10.1 °F 14.0 °F 74% 29.67 in 4.0 mi West 10.4 mph - N/A Snow Light Snow
10:35 AM 21.2 °F 10.1 °F 15.8 °F 80% 29.68 in 4.0 mi West 10.4 mph - N/A Snow Light Snow
10:55 AM 23.0 °F 10.1 °F 17.6 °F 80% 29.69 in 4.0 mi WNW 15.0 mph 25.3 mph N/A Snow Light Snow
11:15 AM 26.6 °F 13.8 °F 19.4 °F 74% 29.68 in 2.5 mi WNW 17.3 mph 29.9 mph N/A   Haze
11:35 AM 26.6 °F 14.7 °F 19.4 °F 74% 29.69 in 4.0 mi NW 15.0 mph 28.8 mph N/A   Haze
11:55 AM 26.6 °F 15.7 °F 19.4 °F 74% 29.70 in 3.0 mi WNW 12.7 mph 26.5 mph N/A   Haze
12:15 PM 28.4 °F 15.4 °F 19.4 °F 69% 29.69 in 5.0 mi NW 19.6 mph 26.5 mph N/A   Haze
12:35 PM 28.4 °F 16.2 °F 19.4 °F 69% 29.69 in 4.0 mi WNW 17.3 mph 25.3 mph N/A   Haze
12:55 PM 28.4 °F 16.6 °F 19.4 °F 69% 29.69 in 5.0 mi WNW 16.1 mph 27.6 mph N/A   Haze
1:15 PM 30.2 °F 18.5 °F 19.4 °F 64% 29.70 in 7.0 mi NW 17.3 mph 29.9 mph N/A   Clear
1:35 PM 30.2 °F 21.9 °F 19.4 °F 64% 29.71 in 10.0 mi WNW 9.2 mph 24.2 mph N/A   Clear
1:55 PM 28.4 °F 24.6 °F 17.6 °F 64% 29.72 in 10.0 mi SW 3.5 mph - N/A   Scattered Clouds
2:15 PM 30.2 °F - 17.6 °F 60% 29.72 in 10.0 mi Calm Calm - N/A   Scattered Clouds
2:35 PM 30.2 °F 22.6 °F 17.6 °F 60% 29.73 in 10.0 mi West 8.1 mph 20.7 mph N/A   Scattered Clouds
2:55 PM 32.0 °F 25.6 °F 17.6 °F 55% 29.73 in 10.0 mi NW 6.9 mph - N/A   Clear
3:15 PM 32.0 °F 25.6 °F 17.6 °F 55% 29.73 in 10.0 mi West 6.9 mph - N/A   Clear
3:35 PM 32.0 °F 24.8 °F 19.4 °F 60% 29.74 in 10.0 mi NW 8.1 mph 17.3 mph N/A   Scattered Clouds
3:55 PM 32.0 °F 26.4 °F 17.6 °F 55% 29.75 in 10.0 mi SSW 5.8 mph - N/A   Scattered Clouds
4:15 PM 30.2 °F 22.6 °F 19.4 °F 64% 29.76 in 10.0 mi SW 8.1 mph - N/A   Clear
4:35 PM 28.4 °F 19.7 °F 19.4 °F 69% 29.77 in 10.0 mi SW 9.2 mph 16.1 mph N/A   Clear
4:55 PM 28.4 °F 19.7 °F 19.4 °F 69% 29.78 in 5.0 mi SW 9.2 mph - N/A   Haze
5:15 PM 28.4 °F 19.7 °F 17.6 °F 64% 29.78 in 10.0 mi SW 9.2 mph - N/A   Clear
5:35 PM 28.4 °F 21.2 °F 19.4 °F 69% 29.79 in 10.0 mi WSW 6.9 mph - N/A   Scattered Clouds
5:55 PM 26.6 °F 20.0 °F 19.4 °F 74% 29.80 in 10.0 mi WSW 5.8 mph - N/A   Mostly Cloudy
6:15 PM 26.6 °F 20.0 °F 19.4 °F 74% 29.81 in 10.0 mi SW 5.8 mph - N/A   Mostly Cloudy
6:35 PM 26.6 °F 19.1 °F 19.4 °F 74% 29.82 in 10.0 mi WSW 6.9 mph - N/A   Overcast
6:55 PM 26.6 °F 18.2 °F 19.4 °F 74% 29.82 in 10.0 mi WSW 8.1 mph - N/A   Mostly Cloudy
7:15 PM 26.6 °F 16.2 °F 19.4 °F 74% 29.84 in 10.0 mi West 11.5 mph - N/A   Scattered Clouds
7:35 PM 26.6 °F 19.1 °F 19.4 °F 74% 29.84 in 10.0 mi WSW 6.9 mph - N/A   Clear
7:55 PM 26.6 °F 20.0 °F 19.4 °F 74% 29.85 in 10.0 mi WSW 5.8 mph - N/A   Scattered Clouds
8:15 PM 24.8 °F 20.5 °F 19.4 °F 80% 29.86 in 10.0 mi WSW 3.5 mph - N/A   Clear
8:35 PM 23.0 °F 18.4 °F 17.6 °F 80% 29.86 in 10.0 mi SSW 3.5 mph - N/A   Clear
8:55 PM 19.4 °F - 14.0 °F 80% 29.86 in 10.0 mi Calm Calm - N/A   Clear
9:15 PM 19.4 °F 11.5 °F 14.0 °F 80% 29.87 in 10.0 mi WSW 5.8 mph - N/A   Clear
9:35 PM 17.6 °F 10.7 °F 14.0 °F 86% 29.88 in 7.0 mi WSW 4.6 mph - N/A   Clear
9:55 PM 17.6 °F 9.3 °F 14.0 °F 86% 29.88 in 7.0 mi WSW 5.8 mph - N/A   Clear
10:15 PM 19.4 °F 11.5 °F 15.8 °F 86% 29.89 in 7.0 mi WSW 5.8 mph - N/A   Clear
10:35 PM 15.8 °F - 12.2 °F 86% 29.89 in 5.0 mi Calm Calm - N/A   Clear
10:55 PM 14.0 °F 8.2 °F 10.4 °F 86% 29.88 in 7.0 mi West 3.5 mph - N/A   Clear
11:15 PM 14.0 °F - 10.4 °F 86% 29.88 in 7.0 mi Calm Calm - N/A   Clear
11:35 PM 14.0 °F - 10.4 °F 86% 29.89 in 1.0 mi Calm Calm - N/A   Overcast
11:55 PM 12.2 °F - 8.6 °F 85% 29.89 in 2.5 mi Calm Calm - N/A   Haze